Home   Weather   Holguín   Past weeks

Flag for Cuba Past Weather in Holguín, Cuba — Yesterday and Last 2 Weeks

Now
91 °F

Scattered clouds.


Feels Like: 96 °F
Forecast: 73 / 88 °F
Wind: 6 mph from Southeast

Location: Holguin Civ / Mil

Current Time: Sep 25, 2016 at 1:28:50 PM

Latest Report: Sep 25, 2016 at 12:50 PM


Visibility: N/A

Pressure: 29.98 "Hg

Humidity: 46%

Dew Point: 68 °F

Location of HolguínLocation

Past Weather in Holguín — Graph

°F

Holguín Temperature Yesterday

Maximum temperature yesterday: 93 °F (at 1:50 PM)
Minimum temperature yesterday: 72 °F (at 2:50 AM)
Average temperature yesterday: 81 °F

High & Low Weather Summary for the Past Weeks

 TemperatureHumidityPressure
High95 °F (Sep 10, 3:50 PM)94% (Sep 10, 9:50 PM)30.07 "Hg (Sep 10, 9:50 PM)
Low70 °F (Sep 13, 4:51 AM)36% (Sep 10, 3:50 PM)29.86 "Hg (Sep 19, 3:50 PM)
Average80 °F76%29.97 "Hg
* Reported Sep 10 11:50 AM — Sep 25 11:50 AM, Holguín, Weather by CustomWeather, © 2016

Note: Actual official high and low records may vary slightly from our data, if they occured in-between our weather recording intervals... More about our weather records

Advertising

Holguín Weather History for the Previous 24 Hours

Scroll right to see more
 ConditionsComfort  
Time TempWeatherWind HumidityBarometerVisibility
11:50 AM
Sun, Sep 25
90 °FScattered clouds.6 mph52%29.98 "HgN/A
10:50 AM88 °FScattered clouds.7 mph55%29.98 "HgN/A
9:50 AM84 °FPassing clouds.7 mph66%30.01 "HgN/A
8:50 AM81 °FPassing clouds.2 mph79%29.98 "HgN/A
7:50 AM75 °FPassing clouds.3 mph89%29.98 "Hg6 mi
6:51 AM73 °FFog.2 mph89%29.98 "Hg4 mi
5:51 AM75 °FPassing clouds.2 mph89%29.95 "Hg5 mi
4:51 AM75 °FPassing clouds.1 mph89%29.95 "Hg5 mi
3:51 AM77 °FPassing clouds.3 mph89%29.95 "Hg5 mi
2:50 AM77 °FPassing clouds.6 mph89%29.95 "Hg5 mi
1:51 AM77 °FPassing clouds.5 mph89%29.98 "Hg5 mi
12:51 AM77 °FPassing clouds.6 mph89%29.98 "Hg5 mi
11:51 PM
Sat, Sep 24
79 °FPassing clouds.6 mph84%29.98 "Hg6 mi
10:51 PM79 °FPassing clouds.7 mph84%30.01 "Hg5 mi
9:51 PM79 °FPassing clouds.7 mph84%30.01 "Hg5 mi
8:51 PM81 °FPassing clouds.6 mph79%30.01 "Hg5 mi
7:51 PM81 °FThundershowers. Passing clouds.6 mph74%29.98 "Hg5 mi
6:52 PM81 °FThundershowers. Broken clouds.1 mph70%29.95 "Hg5 mi
5:50 PM82 °FThundershowers. Broken clouds.7 mph66%N/A4 mi
4:51 PM86 °FThundershowers. Broken clouds.10 mph62%29.95 "Hg4 mi
3:51 PM93 °FScattered clouds.7 mph47%29.92 "Hg6 mi
2:50 PM93 °FScattered clouds.3 mph41%29.95 "Hg6 mi
1:50 PM93 °FScattered clouds.5 mph41%29.98 "Hg6 mi
Weather by CustomWeather, © 2016

See weather overviewHow to use our weather pages